Regional Weather Roundup
Issued by NWS Green Bay, WI

Home | Current Version | Previous Version | Graphics & Text | Print | Product List | Glossary Off
Versions: 1 2 3 4 5 6 7 8 9 10 11 12 13 14 15 16 17 18 19 20 21 22 23 24 25 26 27 28 29 30 31 32 33 34 35 36 37 38 39 40 41 42 43 44 45 46 47 48 49 50

000
ASUS43 KGRB 271559
RWRGRB

NORTH-CENTRAL AND NORTHEAST WISCONSIN REGIONAL WEATHER ROUNDUP
NATIONAL WEATHER SERVICE GREEN BAY WI
1000 AM CST THU NOV 27 2014

WIZ005-009-010>012-018-019-271700-
NORTH CENTRAL WISCONSIN

CITY           SKY/WX    TMP DP  RH WIND       PRES   REMARKS
IRONWOOD       CLOUDY     9   3  78 NW13      30.34R VSB 1   WCI  -7
MANITOWISH WTR NOT AVBL
ARBOR VITAE    NOT AVBL
EAGLE RIVER    NOT AVBL
LAND O LAKES   NOT AVBL
RHINELANDER    SUNNY      7   1  76 N7        30.31R WCI  -5
PHILLIPS       NOT AVBL
ANTIGO         NOT AVBL
TOMAHAWK       NOT AVBL
MERRILL        NOT AVBL
$$

WIZ013-073-271700-
NORTHEAST WISCONSIN

CITY           SKY/WX    TMP DP  RH WIND       PRES   REMARKS
IRON MOUNTAIN  MOSUNNY   10   1  67 NW9       30.31R WCI  -3
MARINETTE      SUNNY     14   3  62 N16       30.33R WCI  -2
$$

WIZ017-030-035>037-045-271700-
CENTRAL WISCONSIN

CITY           SKY/WX    TMP DP  RH WIND       PRES   REMARKS
MEDFORD        NOT AVBL
WAUSAU         SUNNY      9   2  73 NW9       30.35R WCI  -4
MOSINEE        NOT AVBL
MARSHFIELD     SUNNY      8   0  69 NW13      30.37R WCI  -8
WISC RAPIDS    SUNNY     11   2  67 NW13      30.40R WCI  -4
STEVENS POINT  NOT AVBL
WAUPACA        NOT AVBL
SHAWANO        NOT AVBL
CLINTONVILLE   NOT AVBL
$$

WIZ038-039-048-051-271700-
FOX VALLEY

CITY           SKY/WX    TMP DP  RH WIND       PRES   REMARKS
NWS GREEN BAY  CLOUDY    17   6  62 NW12      30.35R WCI   4
APPLETON       PTSUNNY   16  10  79 N12       30.34S WCI   3
OSHKOSH        LGT SNOW  18  12  77 MISG      30.35R
FOND DU LAC    LGT SNOW  18  13  80 NW12      30.35R WCI   5
$$

WIZ022-050-052-271700-
EAST CENTRAL WISCONSIN

CITY           SKY/WX    TMP DP  RH WIND       PRES   REMARKS
STURGEON BAY   MOSUNNY   16   5  62 NW15G22   30.32S WCI   1
MANITOWOC      NOT AVBL
SHEBOYGAN      CLOUDY    19  11  70 N13       30.33R WCI   6
$$

LMZ563-521-522-541>543-271700-
LAKESHORE

STATION/POSITION TIME  TEMP    WIND        PRES    VSBY  WAVE
                       AIR SEA DIR/SP/G                  HT/PER
                 (UTC) (F)     (DEG/KT/KT) (MB)    (MI)  (FT/S)
SHEBOYGAN LKSHOR 1500   20 35  340/ 17/ 20 1027.9R
KEWAUNEE LKSHORE 1500   16     340/  9/ 14 1026.0R
NORTHPORT PIER   1500   19     320/ 20/ 28 1026.4R
N MID LAKE BUOY  1500   20 42  330/ 19/ 25 1025.8R         5/ 5
SISTER BAY LKSHO 1500           10/ 29/ 35   N/A
CHAMBERS ISLAND  1500   16     310/ 20/ 25 1026.4S
MENOMINEE LKSHOR 1500   16     310/ 21/ 26 1027.5R
$$



USA.gov is the U.S. government's official web portal to all federal, state and local government web resources and services.